User: anonymous   Login
Location: Columbia
(38.9520°N, 92.3340°W)
Time: 20:49:02
(UTC-06:00)
Language:

CZ-2C R/B - Orbit

View from above orbital plane
View from above orbital plane
View from above satellite
View from above satellite

Ground track
Ground track

The orbit data is extracted from the following two-line orbital elements,

1 28480U 04046B   15060.43179576  .00000404  00000-0  16913-3 0  9991
2 28480 098.1213 202.1161 0142429 180.7548 247.3466 14.25455459534734
Epoch (UTC): 01 March 2015 10:21:47
Eccentricity: 0.0142429
inclination: 98.1213°
perigee height: 704 km
apogee height: 909 km
right ascension of ascending node: 202.1161°
argument of perigee: 180.7548°
revolutions per day: 14.25455459
mean anomaly at epoch: 247.3466°
orbit number at epoch: 53473

The dashed part of the orbit path shows where the satellite is in the earth's shadow,  

DLR